This demonstration page uses our WeatherBlox Daily Observations layout. Learn more.

Left ArrowRight Arrow

39.08367, -84.50855

Hourly Observations for March 17, 2016

Temp ( °F °C ) Dew Point ( °F °C ) Humidity (%) Winds ( mph kmh ) Pressure ( in mb ) Visibility ( mi km ) Precip ( " mm )
12:53 am 00:53 Cloudy 54 12.2 36 2.2 51 51 SSW 13 20 29.94 1014 10 16.0934 N/A
1:53 am 01:53 Cloudy 54 12.2 34 1.1 47 47 WSW 9 15 29.93 1014 10 16.0934 N/A
2:53 am 02:53 Mostly Cloudy 51 10.6 35 1.7 54 54 SW 8 13 29.93 1013 10 16.0934 N/A
3:53 am 03:53 Cloudy 47 8.3 40 4.4 77 77 SSW 8 13 29.91 1013 10 16.0934 N/A
4:53 am 04:53 Cloudy 50 10 37 2.8 61 61 SW 7 11 29.92 1013 10 16.0934 N/A
5:53 am 05:53 Clear 48 8.9 35 1.7 61 61 WSW 7 11 29.93 1014 10 16.0934 N/A
6:53 am 06:53 Clear 48 8.9 35 1.7 61 61 N N/A 29.94 1014 10 16.0934 N/A
7:53 am 07:53 Sunny 46 7.8 37 2.8 71 71 N N/A 29.93 1014 10 16.0934 N/A
8:53 am 08:53 Sunny 47 8.3 39 3.9 74 74 N N/A 29.96 1015 10 16.0934 N/A
9:53 am 09:53 Sunny 53 11.7 37 2.8 55 55 SW 8 13 29.97 1015 10 16.0934 N/A
10:53 am 10:53 Sunny 56 13.3 35 1.7 46 46 WSW 13 20 29.97 1015 10 16.0934 N/A
11:53 am 11:53 Sunny 58 14.4 35 1.7 42 42 WSW 14 22 29.97 1015 10 16.0934 N/A
12:53 pm 12:53 Mostly Sunny 60 15.6 33 0.6 36 36 W 14 22 29.96 1015 10 16.0934 N/A
1:53 pm 13:53 Mostly Cloudy 61 16.1 30 -1.1 31 31 W 15 24 29.95 1014 10 16.0934 N/A
2:53 pm 14:53 Mostly Cloudy 62 16.7 30 -1.1 30 30 WSW 17 28 29.93 1014 10 16.0934 N/A
3:53 pm 15:53 Mostly Cloudy 60 15.6 29 -1.7 31 31 W 14 22 29.93 1014 10 16.0934 N/A
4:53 pm 16:53 Mostly Sunny 60 15.6 28 -2.2 30 30 W 9 15 29.92 1013 10 16.0934 N/A
5:53 pm 17:53 Mostly Cloudy 62 16.7 28 -2.2 28 28 W 12 19 29.91 1013 10 16.0934 N/A
6:53 pm 18:53 Mostly Cloudy 60 15.6 23 -5 24 24 W 9 15 29.93 1014 10 16.0934 N/A
7:53 pm 19:53 Partly Cloudy 57 13.9 23 -5 27 27 WNW 6 9 29.95 1014 10 16.0934 N/A
8:53 pm 20:53 Mostly Cloudy 56 13.3 23 -5 28 28 VRB 3 6 29.96 1015 10 16.0934 N/A
9:53 pm 21:53 Clear 47 8.3 36 2.2 66 66 S 3 6 29.98 1015 10 16.0934 N/A
10:53 pm 22:53 Clear 44 6.7 35 1.7 71 71 N N/A 29.98 1015 10 16.0934 N/A
11:53 pm 23:53 Clear 44 6.7 33 0.6 65 65 N N/A 29.99 1016 10 16.0934 N/A

Powered by AerisWeather